This is the latest recevied weather packets stored in our database for station/object WA1TYB-13. If no packets are shown the sender has not sent any weather packets the latest 10 day(s).
| Time | Temp. | Humidity | Pressure | Rain* | Wind** | Luminosity | Snow |
|---|---|---|---|---|---|---|---|
| 1788624872 | 16.11° C | 54% | 1021.7 hPa | 0 mm | - | 216 W/m² | - |
| 1788624570 | 16.11° C | 55% | 1021.7 hPa | 0 mm | - | 332 W/m² | - |
| 1788624265 | 16.11° C | 55% | 1021.6 hPa | 0 mm | - | 458 W/m² | - |
| 1788623959 | 15.56° C | 57% | 1022 hPa | 0 mm | - | 408 W/m² | - |
| 1788623659 | 16.11° C | 56% | 1021.7 hPa | 0 mm | - | 381 W/m² | - |
| 1788623357 | 15.56° C | 58% | 1021.8 hPa | 0 mm | - | 346 W/m² | - |
| 1788623053 | 15.56° C | 59% | 1021.6 hPa | 0 mm | - | 337 W/m² | - |
| 1788622749 | 15° C | 60% | 1021.5 hPa | 0 mm | - | 307 W/m² | - |
| 1788622445 | 15° C | 61% | 1021.7 hPa | 0 mm | - | 243 W/m² | - |
| 1788622144 | 15° C | 61% | 1021.6 hPa | 0 mm | - | 240 W/m² | - |
| 1788621843 | 14.44° C | 63% | 1022 hPa | 0 mm | - | 214 W/m² | - |
| 1788621539 | 13.89° C | 63% | 1021.7 hPa | 0 mm | - | 69 W/m² | - |
| 1788621235 | 14.44° C | 64% | 1021.8 hPa | 0 mm | - | 153 W/m² | - |
| 1788620929 | 13.89° C | 65% | 1021.6 hPa | 0 mm | - | 63 W/m² | - |
| 1788620623 | 13.89° C | 65% | 1021.6 hPa | 0 mm | - | 63 W/m² | - |
| 1788620321 | 13.89° C | 65% | 1021.8 hPa | 0 mm | - | 181 W/m² | - |
| 1788620020 | 13.89° C | 65% | 1021.6 hPa | 0 mm | - | 163 W/m² | - |
| 1788619719 | 13.89° C | 66% | 1021.6 hPa | 0 mm | - | 52 W/m² | - |
| 1788619415 | 13.33° C | 69% | 1021.6 hPa | 0 mm | - | 125 W/m² | - |
| 1788619114 | 12.78° C | 71% | 1021.5 hPa | 0 mm | - | 117 W/m² | - |
| 1788618808 | 12.22° C | 74% | 1021.7 hPa | 0 mm | - | 101 W/m² | - |
| 1788618508 | 11.67° C | 74% | 1021.6 hPa | 0 mm | - | 42 W/m² | - |
| 1788618202 | 11.67° C | 75% | 1021.6 hPa | 0 mm | - | 60 W/m² | - |
| 1788617898 | 11.67° C | 76% | 1021.6 hPa | 0 mm | - | 37 W/m² | - |
| 1788617593 | 11.67° C | 76% | 1021.5 hPa | 0 mm | - | 34 W/m² | - |
* Rain latest hour (hover to see other rain measurements)
** Current wind speed in m/s (hover to see current wind gust speed)